Adana, Turkey

11:40 AM EEST on September 25, 2016 (GMT +0300)
Adana

Weather History for LTAF - November, 2012

Change the Weather History Date:

Wednesday, November 14, 2012

  Actual Average Record
Temperature  
Mean Temperature 62 °F -  
Max Temperature 73 °F 72 °F 87 °F (2010)
Min Temperature 50 °F 49 °F 41 °F (2003)
Degree Days  
Heating Degree Days 4    
Growing Degree Days 12 (Base 50)    
Moisture  
Dew Point 51 °F    
Average Humidity 73    
Maximum Humidity 94    
Minimum Humidity 38    
Precipitation  
Precipitation 0.00 in - - ()
Sea Level Pressure  
Sea Level Pressure 30.02 in    
Wind  
Wind Speed 3 mph ()    
Max Wind Speed 9 mph    
Max Gust Speed -    
Visibility 3.2 miles    
Events      
Averages and records for this station are not official NWS values.
T = Trace of Precipitation, MM = Missing Value Source: Averaged Metar Reports

Daily Weather History Graph

Daily Weather History Graph

Search for Another Location

Airport or City:

Trip Planner

Search our weather history database for the weather conditions in past years. The results will help you decide how hot, cold, wet, or windy it might be!

Date:

Astronomy

Nov. 14, 2012 Rise Set
Actual Time 6:16 AM EET 4:29 PM EET
Civil Twilight 5:48 AM EET 4:57 PM EET
Nautical Twilight 5:17 AM EET 5:28 PM EET
Astronomical Twilight 4:46 AM EET 5:59 PM EET
Moon 6:40 AM EET (11/14) 4:59 PM EET (11/14)
Length of Visible Light 11h 08m
Length of Day
10h 13m
New Moon, 0% of the Moon is Illuminated
Nov 14
New Moon
Nov 20
First Quarter
Nov 28
Full
Dec 6
Last Quarter
Dec 13
New

Hourly Weather History & Observations

Time (EET) Temp. Dew Point Humidity Pressure Visibility Wind Dir Wind Speed Gust Speed Precip Events Conditions
12:20 AM 53.6 °F 50.0 °F 88% 29.98 in 3.1 mi Variable 1.2 mph - N/A   Mist
12:50 AM 53.6 °F 50.0 °F 88% 29.98 in 3.1 mi North 3.5 mph - N/A   Mist
1:20 AM 53.6 °F 48.2 °F 82% 29.98 in 3.1 mi WNW 3.5 mph - N/A   Mist
1:50 AM 53.6 °F 48.2 °F 82% 29.98 in 3.1 mi Variable 2.3 mph - N/A   Mist
2:20 AM 51.8 °F 48.2 °F 88% 29.98 in 3.1 mi Variable 2.3 mph - N/A   Mist
2:50 AM 51.8 °F 46.4 °F 82% 29.98 in 3.1 mi Variable 2.3 mph - N/A   Mist
3:20 AM 51.8 °F 46.4 °F 82% 29.98 in 3.1 mi Variable 2.3 mph - N/A   Mist
3:50 AM 53.6 °F 50.0 °F 88% 29.98 in 3.1 mi NNW 3.5 mph - N/A   Mist
4:20 AM 51.8 °F 46.4 °F 82% 29.98 in 3.1 mi Variable 2.3 mph - N/A   Mist
4:50 AM 50.0 °F 46.4 °F 87% 29.98 in 3.1 mi Variable 1.2 mph - N/A   Mist
5:20 AM 50.0 °F 48.2 °F 94% 30.01 in 3.1 mi Variable 1.2 mph - N/A   Mist
5:50 AM 50.0 °F 48.2 °F 94% 30.01 in 3.1 mi Calm Calm - N/A   Mist
6:20 AM 50.0 °F 46.4 °F 87% 30.01 in 3.1 mi NW 2.3 mph - N/A   Mist
6:50 AM 51.8 °F 48.2 °F 88% 30.01 in 3.7 mi Variable 2.3 mph - N/A   Unknown
7:20 AM 53.6 °F 50.0 °F 88% 30.04 in 3.7 mi South 2.3 mph - N/A   Unknown
7:50 AM 57.2 °F 53.6 °F 88% 30.04 in 5.0 mi Calm Calm - N/A   Unknown
8:20 AM 60.8 °F 51.8 °F 72% 30.04 in - SSW 2.3 mph - N/A   Clear
8:50 AM 62.6 °F 51.8 °F 68% 30.04 in - Variable 1.2 mph - N/A   Clear
9:20 AM 68.0 °F 50.0 °F 52% 30.04 in - Calm Calm - N/A   Clear
9:50 AM 69.8 °F 50.0 °F 49% 30.04 in - Variable 1.2 mph - N/A   Clear
10:20 AM 71.6 °F 48.2 °F 43% 30.04 in - Variable 1.2 mph - N/A   Clear
10:50 AM 71.6 °F 48.2 °F 43% 30.01 in - WSW 3.5 mph - N/A   Clear
11:20 AM 71.6 °F 48.2 °F 43% 30.01 in - SW 4.6 mph - N/A   Clear
11:50 AM 71.6 °F 48.2 °F 43% 30.01 in - South 4.6 mph - N/A   Clear
12:20 PM 73.4 °F 46.4 °F 38% 29.98 in - SSW 4.6 mph - N/A   Clear
12:50 PM 73.4 °F 48.2 °F 41% 29.98 in - SSW 5.8 mph - N/A   Clear
1:20 PM 73.4 °F 48.2 °F 41% 29.98 in - SSW 8.1 mph - N/A   Clear
1:50 PM 73.4 °F 51.8 °F 47% 29.98 in - SSW 9.2 mph - N/A   Clear
2:20 PM 73.4 °F 53.6 °F 50% 29.98 in - SW 9.2 mph - N/A   Clear
2:50 PM 71.6 °F 53.6 °F 53% 29.98 in - SW 9.2 mph - N/A   Clear
3:20 PM 69.8 °F 53.6 °F 56% 29.98 in - SW 9.2 mph - N/A   Clear
3:50 PM 68.0 °F 55.4 °F 64% 30.01 in - SW 5.8 mph - N/A   Clear
4:20 PM 66.2 °F 53.6 °F 64% 30.01 in - SW 6.9 mph - N/A   Clear
4:50 PM 64.4 °F 53.6 °F 68% 30.01 in - WSW 5.8 mph - N/A   Clear
5:20 PM 62.6 °F 55.4 °F 77% 30.01 in - West 4.6 mph - N/A   Clear
5:50 PM 62.6 °F 55.4 °F 77% 30.04 in - SW 1.2 mph - N/A   Clear
6:20 PM 62.6 °F 55.4 °F 77% 30.04 in - Calm Calm - N/A   Clear
6:50 PM 60.8 °F 55.4 °F 82% 30.04 in 3.1 mi ESE 2.3 mph - N/A   Mist
7:20 PM 60.8 °F 55.4 °F 82% 30.04 in 3.1 mi North 1.2 mph - N/A   Mist
7:50 PM 59.0 °F 55.4 °F 88% 30.06 in 3.1 mi NE 2.3 mph - N/A   Mist
8:20 PM 59.0 °F 55.4 °F 88% 30.06 in 3.1 mi NNE 3.5 mph - N/A   Mist
8:50 PM 59.0 °F 53.6 °F 82% 30.06 in 3.1 mi ENE 2.3 mph - N/A   Mist
9:20 PM 59.0 °F 55.4 °F 88% 30.06 in 3.1 mi NNE 2.3 mph - N/A   Mist
9:50 PM 57.2 °F 53.6 °F 88% 30.06 in 3.1 mi Variable 2.3 mph - N/A   Mist
10:20 PM 59.0 °F 53.6 °F 82% 30.06 in 3.1 mi North 2.3 mph - N/A   Mist
10:50 PM 59.0 °F 55.4 °F 88% 30.06 in 3.1 mi NNW 2.3 mph - N/A   Mist
11:20 PM 57.2 °F 53.6 °F 88% 30.06 in 3.1 mi North 2.3 mph - N/A   Mist
11:50 PM 55.4 °F 51.8 °F 88% 30.06 in 3.1 mi Calm Calm - N/A   Mist